Change the Weather History Date:

Saturday, March 15, 2014

  Actual Average (KPBG) Record (KPBG)
Temperature  
Mean Temperature 36 °F 30 °F  
Max Temperature 43 °F 40 °F 61 °F (1990)
Min Temperature 28 °F 21 °F -1 °F (1993)
Degree Days  
Heating Degree Days 28 35  
Month to date heating degree days 556  
Since 1 July heating degree days 6168  
Cooling Degree Days 0 0  
Month to date cooling degree days 0  
Year to date cooling degree days 0  
Moisture  
Dew Point 25 °F    
Average Humidity 58    
Maximum Humidity 79    
Minimum Humidity 42    
Precipitation  
Precipitation 0.00 in - 0.99 in (1958)
Month to date precipitation  
Year to date precipitation  
Sea Level Pressure  
Sea Level Pressure 29.66 in    
Wind  
Wind Speed 10 mph (WSW)    
Max Wind Speed 16 mph    
Max Gust Speed 28 mph    
Visibility 10 miles    
Events Snow    
T = Trace of Precipitation, MM = Missing Value Source: NWS Daily Summary

Daily Weather History Graph

Daily Weather History Graph

Search for Another Location

Airport or City:

Trip Planner

Search our weather history database for the weather conditions in past years. The results will help you decide how hot, cold, wet, or windy it might be!

Date:

Astronomy

Mar. 15, 2014 Rise Set
Actual Time 7:04 AM EDT 6:58 PM EDT
Civil Twilight 6:35 AM EDT 7:27 PM EDT
Nautical Twilight 6:01 AM EDT 8:01 PM EDT
Astronomical Twilight 5:26 AM EDT 8:36 PM EDT
Moon 6:14 PM EDT (3/15) 6:16 AM EDT (3/15)
Length of Visible Light 12h 51m
Length of Day
11h 53m
Waxing Gibbous, 99% of the Moon is Illuminated
Mar 15
Waxing Gibbous
Mar 16
Full
Mar 23
Last Quarter
Mar 30
New
Apr 7
First Quarter

Hourly Weather History & Observations

Time (EDT) Temp. Windchill Dew Point Humidity Pressure Visibility Wind Dir Wind Speed Gust Speed Precip Events Conditions
12:15 AM 41.0 °F 33.5 °F 20.1 °F 43% 29.60 in 10.0 mi South 13.8 mph 26.5 mph N/A   Mostly Cloudy
12:35 AM 41.0 °F 33.5 °F 19.9 °F 43% 29.58 in 10.0 mi South 13.8 mph 27.6 mph N/A   Mostly Cloudy
12:55 AM 41.0 °F 33.5 °F 19.6 °F 42% 29.57 in 10.0 mi South 13.8 mph 24.2 mph N/A   Overcast
1:15 AM 41.7 °F 34.1 °F 20.1 °F 42% 29.57 in 10.0 mi South 15.0 mph 23.0 mph N/A   Overcast
1:35 AM 42.1 °F 35.2 °F 20.1 °F 42% 29.58 in 10.0 mi South 12.7 mph 23.0 mph N/A   Overcast
1:55 AM 42.1 °F 35.2 °F 20.1 °F 42% 29.57 in 10.0 mi South 12.7 mph 24.2 mph N/A   Overcast
2:15 AM 42.1 °F 34.5 °F 20.5 °F 42% 29.57 in 10.0 mi South 15.0 mph 27.6 mph N/A   Overcast
2:35 AM 42.1 °F 35.2 °F 20.1 °F 42% 29.56 in 10.0 mi South 12.7 mph 23.0 mph N/A   Overcast
2:55 AM 42.1 °F 35.2 °F 20.7 °F 42% 29.55 in 10.0 mi South 12.7 mph 26.5 mph N/A   Mostly Cloudy
3:15 AM 42.1 °F 34.2 °F 20.5 °F 42% 29.56 in 10.0 mi South 16.1 mph 25.3 mph N/A   Overcast
3:35 AM 42.1 °F 34.5 °F 20.8 °F 43% 29.55 in 10.0 mi South 15.0 mph 26.5 mph N/A   Overcast
3:55 AM 42.1 °F 35.2 °F 21.2 °F 43% 29.56 in 10.0 mi South 12.7 mph 21.9 mph N/A   Overcast
4:15 AM 42.1 °F 34.9 °F 21.6 °F 44% 29.55 in 10.0 mi South 13.8 mph 19.6 mph N/A   Overcast
4:35 AM 42.1 °F 35.7 °F 21.9 °F 45% 29.54 in 10.0 mi South 11.5 mph 24.2 mph N/A   Mostly Cloudy
4:55 AM 42.1 °F 36.6 °F 22.1 °F 45% 29.54 in 10.0 mi South 9.2 mph - N/A   Mostly Cloudy
5:15 AM 42.1 °F 36.1 °F 21.7 °F 44% 29.54 in 10.0 mi South 10.4 mph 18.4 mph N/A   Overcast
5:35 AM 42.1 °F 36.1 °F 21.9 °F 45% 29.53 in 10.0 mi South 10.4 mph 16.1 mph N/A   Mostly Cloudy
5:55 AM 42.1 °F 36.6 °F 22.5 °F 46% 29.54 in 10.0 mi South 9.2 mph 17.3 mph N/A   Mostly Cloudy
6:15 AM 41.5 °F 34.6 °F 22.8 °F 47% 29.53 in 10.0 mi South 12.7 mph 18.4 mph N/A   Scattered Clouds
6:35 AM 42.1 °F 36.1 °F 23.0 °F 47% 29.53 in 10.0 mi South 10.4 mph 17.3 mph N/A   Scattered Clouds
6:55 AM 42.1 °F 38.4 °F 23.0 °F 47% 29.53 in 10.0 mi SSW 5.8 mph 16.1 mph N/A   Overcast
7:15 AM 42.1 °F 37.1 °F 23.4 °F 48% 29.53 in 10.0 mi South 8.1 mph - N/A   Overcast
7:35 AM 42.1 °F 36.6 °F 23.7 °F 48% 29.53 in 10.0 mi South 9.2 mph 17.3 mph N/A   Overcast
7:55 AM 42.1 °F 36.1 °F 23.9 °F 49% 29.54 in 10.0 mi SSW 10.4 mph 16.1 mph N/A   Overcast
8:15 AM 42.1 °F 35.7 °F 24.4 °F 50% 29.53 in 10.0 mi South 11.5 mph 19.6 mph N/A   Overcast
8:35 AM 43.5 °F 37.9 °F 24.8 °F 48% 29.54 in 10.0 mi South 10.4 mph 16.1 mph N/A   Overcast
8:55 AM 43.3 °F 37.7 °F 25.2 °F 49% 29.54 in 10.0 mi South 10.4 mph 16.1 mph N/A   Overcast
9:15 AM 43.2 °F 37.9 °F 25.7 °F 50% 29.54 in 10.0 mi South 9.2 mph 16.1 mph N/A   Overcast
9:35 AM 42.3 °F 35.9 °F 25.5 °F 52% 29.55 in 10.0 mi SSW 11.5 mph 17.3 mph N/A   Overcast
9:55 AM 42.1 °F 37.7 °F 26.8 °F 55% 29.55 in 10.0 mi SW 6.9 mph - N/A   Light Drizzle
10:15 AM 41.0 °F 36.4 °F 27.5 °F 59% 29.56 in 10.0 mi SW 6.9 mph - N/A   Drizzle
10:35 AM 42.1 °F 36.1 °F 28.2 °F 58% 29.58 in 10.0 mi WSW 10.4 mph 19.6 mph N/A   Overcast
10:55 AM 41.9 °F 37.5 °F 28.6 °F 59% 29.59 in 10.0 mi SW 6.9 mph - N/A   Overcast
11:15 AM 41.2 °F 36.0 °F 29.1 °F 62% 29.59 in 10.0 mi SW 8.1 mph - N/A   Light Drizzle
11:35 AM 42.1 °F 39.2 °F 29.3 °F 61% 29.59 in 10.0 mi SW 4.6 mph - N/A   Overcast
11:55 AM 42.1 °F - 29.7 °F 61% 29.60 in 10.0 mi Calm Calm - N/A   Overcast
12:15 PM 42.8 °F 41.1 °F 30.4 °F 62% 29.61 in 10.0 mi SSW 3.5 mph - N/A   Overcast
12:35 PM 43.2 °F - 30.7 °F 62% 29.61 in 10.0 mi Calm Calm - N/A   Overcast
12:55 PM 42.1 °F 40.2 °F 30.9 °F 65% 29.62 in 10.0 mi WNW 3.5 mph - N/A   Overcast
1:15 PM 42.1 °F 39.2 °F 30.9 °F 65% 29.62 in 10.0 mi WNW 4.6 mph - N/A   Overcast
1:35 PM 41.2 °F 37.3 °F 30.2 °F 65% 29.63 in 10.0 mi WNW 5.8 mph - N/A   Overcast
2:15 PM 42.1 °F 38.4 °F 30.2 °F 63% 29.64 in 10.0 mi WNW 5.8 mph - N/A   Overcast
2:35 PM 42.4 °F 38.1 °F 30.0 °F 61% 29.64 in 10.0 mi NW 6.9 mph - N/A   Overcast
2:55 PM 42.1 °F 37.1 °F 29.1 °F 60% 29.65 in 10.0 mi WNW 8.1 mph - N/A   Overcast
3:15 PM 41.5 °F 37.8 °F 29.1 °F 61% 29.66 in 10.0 mi WNW 5.8 mph - N/A   Overcast
3:35 PM 41.0 °F 37.1 °F 28.9 °F 62% 29.68 in 10.0 mi WNW 5.8 mph - N/A   Overcast
3:55 PM 41.0 °F 38.0 °F 29.3 °F 63% 29.69 in 10.0 mi WNW 4.6 mph - N/A   Overcast
4:15 PM 40.8 °F 36.9 °F 30.7 °F 67% 29.70 in 10.0 mi WNW 5.8 mph - N/A   Overcast
4:35 PM 38.7 °F 36.3 °F 30.0 °F 71% 29.71 in 10.0 mi WNW 3.5 mph - N/A   Overcast
4:55 PM 38.3 °F 33.9 °F 30.2 °F 73% 29.72 in 10.0 mi WNW 5.8 mph - N/A   Overcast
5:15 PM 38.3 °F 33.9 °F 31.1 °F 75% 29.73 in 10.0 mi WNW 5.8 mph - N/A   Overcast
5:35 PM 38.3 °F 35.9 °F 30.2 °F 73% 29.74 in 10.0 mi West 3.5 mph - N/A   Overcast
5:55 PM 38.3 °F 32.5 °F 27.5 °F 65% 29.75 in 10.0 mi West 8.1 mph - N/A   Overcast
6:15 PM 37.0 °F 31.6 °F 27.3 °F 68% 29.76 in 10.0 mi West 6.9 mph - N/A   Overcast
6:35 PM 35.6 °F 29.9 °F 26.4 °F 69% 29.76 in 10.0 mi WNW 6.9 mph - N/A   Overcast
6:55 PM 35.6 °F 31.7 °F 26.2 °F 69% 29.77 in 10.0 mi WNW 4.6 mph - N/A Snow Light Snow
7:15 PM 35.6 °F 31.7 °F 27.1 °F 71% 29.78 in 7.0 mi NW 4.6 mph - N/A Snow Light Snow
7:35 PM 35.6 °F 32.8 °F 27.0 °F 71% 29.79 in 7.0 mi NW 3.5 mph - N/A Snow Light Snow
7:55 PM 35.6 °F 31.7 °F 27.7 °F 73% 29.80 in 10.0 mi NW 4.6 mph - N/A   Overcast
8:15 PM 35.6 °F 32.8 °F 28.9 °F 77% 29.81 in 7.0 mi WNW 3.5 mph - N/A Snow Light Snow
8:35 PM 35.6 °F 29.9 °F 29.1 °F 77% 29.83 in 7.0 mi NW 6.9 mph - N/A Snow Light Snow
8:55 PM 33.1 °F 26.9 °F 25.7 °F 74% 29.84 in 10.0 mi WNW 6.9 mph - N/A   Overcast
9:15 PM 33.1 °F 26.1 °F 25.5 °F 74% 29.85 in 10.0 mi WNW 8.1 mph - N/A   Overcast
9:35 PM 32.5 °F 24.2 °F 26.6 °F 79% 29.87 in 7.0 mi WNW 10.4 mph 18.4 mph N/A   Overcast
9:55 PM 31.3 °F 25.6 °F 25.5 °F 79% 29.87 in 10.0 mi WNW 5.8 mph - N/A Snow Light Snow
10:15 PM 30.9 °F 26.2 °F 22.8 °F 72% 29.88 in 10.0 mi WNW 4.6 mph - N/A   Overcast
10:35 PM 30.9 °F 26.2 °F 22.8 °F 72% 29.90 in 10.0 mi WNW 4.6 mph - N/A   Overcast
10:55 PM 30.9 °F 25.2 °F 23.0 °F 72% 29.90 in 10.0 mi WNW 5.8 mph - N/A   Overcast
11:15 PM 30.9 °F 23.5 °F 21.6 °F 68% 29.91 in 10.0 mi NW 8.1 mph - N/A   Overcast
11:35 PM 30.9 °F 22.8 °F 18.1 °F 59% 29.93 in 10.0 mi WNW 9.2 mph - N/A   Scattered Clouds
11:55 PM 28.4 °F 20.4 °F 16.3 °F 61% 29.94 in 10.0 mi NW 8.1 mph - N/A   Mostly Cloudy